Location: Dreilärchen
(47.9312°N, 8.6113°E)
Time: 02:20:52
(UTC+00:00)

Lacrosse 5 - Pass Details

Date: 26 May 2022
Orbit: 714 x 724 km, 57.0° (Epoch: 09 March)

Event Time Altitude Azimuth Distance (km) Brightness Sun altitude
Exits shadow 02:37:42 - 253° (WSW) 2,449 4.1 -8.3°
Reaches altitude 10° 02:38:20 10° 254° (WSW) 2,213 3.9 -8.2°
Maximum altitude 02:43:20 54° 332° (NNW) 880 2.5 -7.6°
Drops below altitude 10° 02:48:20 10° 50° (NE) 2,216 6.2 -7.0°
Sets 02:50:47 0° 55° (NE) 3,137 7.6 -6.7°
